Downstream station:
SHEF ID: ENWK1 CROOKED C NR ENGLEWOOD, KS
STATION TYPE:
Regulating: Stage = 6.50, Flow = 243
PRECIP STAGE RIV-FLOW BAT-LOAD
in ft cfs volt
Ccp-Rev Ccp-Rev Ccp-Rev Ccp-Rev
(US/Central)
01/06 00:00 0.00 2.44 4 12.83
01/06 01:00 0.00 2.44 4 12.83
01/06 02:00 0.00 2.54 5 12.83
01/06 03:00 0.00 2.64 6 12.77
01/06 04:00 0.00 2.65 6 12.71
01/06 05:00 0.00 2.69 7 12.71
01/06 06:00 0.00 2.70 7 12.65
01/06 07:00 0.00 2.71 7 12.65
01/06 08:00 0.00 2.71 7 12.54
01/06 09:00 0.00 2.75 8 12.71
01/06 10:00 0.00 2.78 9 14.06
01/06 11:00 0.00 2.74 8 14.94
01/06 12:00 0.00 2.46 4 14.94
01/06 13:00 0.00 2.37 3 14.82
01/06 14:00 0.00 2.33 2 14.76
01/06 15:00 0.00 2.33 2 14.76
01/06 16:00 0.00 2.35 3 14.71
01/06 17:00 0.00 2.38 3 14.18
01/06 18:00 0.00 2.42 3 13.83
01/06 19:00 0.00 2.54 5 13.24
01/06 20:00 0.00 2.62 6 12.95
01/06 21:00 0.00 2.67 7 12.89
01/06 22:00 0.00 2.73 8 12.83
01/06 23:00 ---- ---- ---- ----